Location: Stendal
(52.5994°N, 11.8400°E)
Time: 23:50:15
(UTC+02:00)

ISS - Visible Passes

Search period start: 24 July 2021 00:00
Search period end: 03 August 2021 00:00
Orbit: 419 x 421 km, 51.6° (Epoch: 24 July)

Date Brightness Start Highest point End Pass type
(mag) Time Alt. Az. Time Alt. Az. Time Alt. Az.
24 Jul -1.6 00:43:27 10° W 00:44:40 16° WSW 00:44:40 16° WSW visible
24 Jul -3.7 22:18:55 10° W 22:22:17 66° S 22:25:39 10° ESE visible
24 Jul -2.5 23:55:55 10° W 23:58:46 26° SSW 23:58:48 26° SSW visible
25 Jul -2.9 23:08:29 10° W 23:11:35 34° SSW 23:12:58 24° SSE visible
26 Jul -3.2 22:21:06 10° W 22:24:21 44° SSW 22:27:09 13° SE visible
26 Jul -1.4 23:58:51 10° WSW 00:00:06 13° SW 00:00:06 13° SW visible
27 Jul -2.0 23:10:59 10° W 23:13:26 19° SW 23:14:20 17° SSW visible
28 Jul -2.3 22:23:25 10° W 22:26:16 25° SSW 22:28:36 13° SSE visible
30 Jul -1.3 22:26:19 10° WSW 22:27:59 13° SW 22:29:39 10° S visible
